Torna al catalogo

QIANFAN-31

AttivoComunicazioniPO
NORAD 61564·PAYLOAD·🇨🇳 China

Lanciato Oct 15, 2024 da Taiyuan Satellite Launch Center

Loading…

Prossimi Passaggi (prossime 24 ore)

TLE

AggiornatoSource: Space-Track

Epoca: Sep 14, 2026, 13:01 UTC

1 61564U 24185N   26257.54293555  .00000142  00000-0  17965-3 0  9990
2 61564  88.9799  51.7961 0005530 313.7975  46.2722 13.58063019105590

Traccia QIANFAN-31 in tempo reale con AllMySat

Download on the App Store